Theta_e
328 328 328 328 328 328 328 328 328 327 328 328 327 327 326 326 326 326 327 326 326 327 327 327 327 328 328 326 328 328 326 318 318 316 309 310 317 323 327 331 334 338 330 308 306 307 305 305 305 307 310 311 309 309 308 309 306 311 304 302 300 301 299 302 300 302 303 302 301 299 303 305 301 300 302 303 304 304 304 305 307 309 312 318 319 319 320 332
327 327 327 328 328 328 327 327 327 327 327 327 327 327 326 326 326 325 325 326 325 326 327 326 326 327 327 327 328 327 320 312 311 312 307 319 324 330 327 335 337 335 320 308 307 306 305 304 304 306 308 306 308 308 307 308 307 307 303 302 299 301 303 303 303 303 301 302 302 301 302 305 304 303 302 302 302 303 303 305 305 309 312 317 318 319 322 327
327 327 327 327 327 327 327 327 327 327 327 326 327 326 326 326 326 326 325 326 325 325 326 326 326 326 326 326 327 326 315 310 306 303 308 325 329 331 339 334 337 332 312 309 309 308 306 306 305 307 305 305 306 306 308 305 307 302 305 299 301 306 301 300 301 302 300 301 302 300 301 301 301 303 303 302 302 302 302 303 304 305 308 312 319 319 324 329
326 326 327 327 327 327 326 326 326 326 326 326 326 326 326 325 325 325 324 324 324 325 326 325 325 325 325 326 328 324 312 305 298 304 305 329 326 338 338 340 336 331 310 307 309 310 306 305 305 307 305 304 303 305 305 305 305 304 303 301 303 302 302 300 299 300 298 300 303 302 300 300 300 302 303 302 301 301 303 306 305 305 307 312 319 321 325 327
326 326 326 326 326 326 326 326 326 326 326 326 326 326 325 325 325 324 324 323 324 324 324 324 324 325 326 326 325 323 308 296 301 304 308 331 333 338 335 339 335 317 310 304 306 305 306 306 305 304 306 301 304 304 303 302 303 306 301 300 300 299 302 299 299 297 297 297 302 300 300 302 302 301 302 303 301 302 304 306 307 308 309 316 318 322 325 327
325 325 325 326 326 326 326 326 326 327 326 325 325 325 325 324 324 324 323 323 323 323 324 324 324 325 326 326 325 316 304 294 304 310 325 334 336 335 336 337 328 306 303 304 306 304 305 304 305 303 301 302 302 301 301 300 300 301 299 299 299 298 300 298 298 296 297 299 300 300 302 301 301 301 301 303 303 304 303 302 304 305 309 320 321 323 323 325
325 325 325 325 325 325 326 326 326 326 326 325 325 325 324 324 323 323 323 323 323 323 323 324 324 324 325 324 319 309 301 303 307 318 326 337 338 336 336 331 320 304 305 303 303 303 304 303 304 302 301 301 300 300 299 301 299 301 301 299 298 298 299 296 298 295 296 300 300 301 301 302 300 300 299 300 305 303 301 302 302 301 316 320 321 323 324 325
324 324 323 323 324 325 326 326 325 325 325 324 324 324 324 323 323 322 323 322 322 322 323 323 324 324 323 316 306 300 301 301 307 315 330 332 330 328 319 310 307 307 305 304 303 303 303 302 301 300 301 299 300 300 299 300 300 300 298 298 297 297 297 295 295 296 296 297 297 298 300 300 300 300 298 301 304 305 302 308 310 313 316 319 322 322 325 326
323 323 322 322 322 322 324 325 325 325 324 324 324 324 323 322 322 322 321 322 322 322 322 323 323 324 321 310 303 299 298 311 309 320 329 321 313 310 310 308 307 305 305 305 305 305 303 301 302 302 299 298 299 300 297 301 298 301 299 298 297 297 297 296 297 297 297 297 298 300 299 298 297 298 299 303 303 300 301 303 313 314 315 317 321 322 324 325
323 323 322 322 322 322 323 323 324 324 324 323 324 323 323 322 321 321 321 321 322 321 322 323 324 324 317 306 303 296 304 307 314 319 320 313 308 308 307 308 305 306 304 303 303 303 303 302 303 302 302 298 299 299 298 300 298 300 298 299 298 296 298 297 298 297 297 298 296 300 298 298 297 297 300 301 300 297 304 306 312 314 313 317 320 322 324 325
323 323 322 321 321 322 324 323 323 324 324 323 323 323 322 321 321 321 321 321 321 321 321 322 324 322 312 306 298 297 310 314 313 314 316 312 308 307 307 305 306 306 307 302 304 304 305 305 304 301 302 300 300 296 298 299 300 300 299 299 298 298 298 298 298 297 299 298 297 301 297 298 298 297 300 300 298 298 302 306 309 313 312 317 319 321 323 324
323 323 323 322 321 322 323 323 322 322 323 323 323 322 321 320 321 320 320 320 321 321 321 322 323 320 308 302 299 301 306 314 312 311 312 310 307 307 309 306 305 309 307 303 305 309 305 305 304 300 298 302 298 298 298 298 301 299 301 298 297 298 299 298 298 299 298 298 298 300 299 297 297 299 302 298 296 300 302 305 308 310 312 315 318 319 321 322
322 322 323 322 321 322 322 323 323 323 322 322 322 321 320 320 320 320 320 320 320 321 321 322 322 316 306 297 301 305 313 312 309 309 309 310 307 306 307 307 306 305 308 307 306 309 305 304 305 301 300 301 299 297 299 300 297 299 299 299 296 297 297 297 297 298 297 298 297 297 294 298 299 301 299 296 297 299 301 303 306 309 311 312 314 317 318 320
321 322 321 321 321 321 322 322 323 323 322 321 321 320 320 320 319 319 320 319 321 321 321 322 321 313 304 299 305 310 309 311 309 309 308 309 309 308 306 307 307 305 307 307 304 304 303 303 305 301 303 301 298 300 300 297 298 298 296 299 297 295 295 296 297 297 298 297 297 297 295 297 298 298 297 297 297 298 301 303 304 306 308 309 311 313 316 318
321 320 320 320 320 320 320 321 323 322 322 321 320 321 320 319 319 319 320 320 320 321 320 318 318 307 298 300 305 312 318 310 309 309 310 307 307 306 305 307 306 306 306 306 305 303 304 307 305 301 299 298 301 299 296 297 296 296 295 293 295 295 296 295 297 296 297 298 298 297 295 297 300 299 296 297 298 298 300 302 302 302 303 305 307 308 311 315
320 320 320 320 320 319 320 320 321 321 321 320 320 320 319 319 318 319 319 319 321 320 318 313 311 307 298 296 303 321 311 308 308 310 309 310 312 308 307 305 305 304 305 302 304 305 306 307 301 299 298 299 299 298 296 295 295 294 295 295 293 293 295 294 295 296 296 297 299 297 296 296 297 299 298 296 298 298 300 301 301 301 301 301 302 304 306 309
320 319 319 319 319 319 320 320 320 320 320 320 320 319 319 318 318 318 320 320 319 319 316 306 310 306 295 301 311 307 306 309 307 310 308 309 308 307 306 306 304 303 304 303 305 307 304 303 297 299 301 298 298 299 294 293 292 293 295 294 295 291 292 293 295 296 298 297 297 297 294 297 299 300 298 297 297 298 300 300 301 302 303 303 303 303 303 305
320 319 318 319 319 319 319 319 319 320 320 319 318 318 316 318 319 318 317 316 317 317 312 310 310 299 295 301 299 302 308 306 308 307 308 305 306 307 306 302 301 304 304 302 304 302 302 299 300 297 298 297 296 296 292 288 292 292 292 292 291 290 292 292 294 294 295 296 296 296 295 297 299 300 299 300 298 297 299 300 301 302 302 303 303 303 303 304
319 319 318 319 319 319 319 319 320 320 319 319 319 319 319 319 318 317 313 307 302 298 295 297 298 290 291 297 302 305 307 309 308 308 304 306 305 305 305 305 305 302 300 299 298 300 301 300 301 297 293 294 294 296 294 296 295 294 294 293 294 292 291 292 294 293 295 296 295 296 295 297 299 300 301 300 297 298 299 300 299 300 301 301 302 303 304 305
319 319 319 319 319 319 318 319 320 319 319 316 314 313 311 304 304 302 307 303 300 298 297 301 301 297 295 299 303 305 308 308 305 305 307 307 305 305 303 303 304 302 298 297 297 298 301 296 293 293 295 295 296 296 295 294 296 295 295 295 293 294 293 292 293 294 293 295 295 296 296 296 297 299 300 301 298 298 299 300 301 302 303 304 304 303 305 305
319 319 319 319 318 318 318 320 319 318 317 314 312 307 297 298 294 293 301 301 303 298 298 301 300 298 299 303 304 303 303 302 305 305 307 307 305 304 300 301 299 296 296 296 298 296 298 295 294 296 297 297 296 293 294 294 295 295 293 293 290 293 292 292 294 294 294 294 295 292 294 296 297 299 300 301 299 298 299 301 302 303 304 304 305 306 307 307
318 318 318 318 318 318 319 319 318 318 317 314 310 302 299 303 302 308 302 293 299 300 298 301 303 303 304 304 306 303 307 301 302 304 307 306 304 300 298 299 297 294 294 295 296 295 294 293 296 295 292 293 292 293 294 294 293 293 294 294 293 292 293 293 293 293 294 293 295 293 293 296 298 299 301 300 300 300 301 302 303 303 304 304 304 304 306 307
318 318 318 318 317 318 319 319 318 317 313 309 306 302 303 307 311 310 308 299 296 300 299 300 299 302 302 304 305 305 301 298 298 302 305 307 302 300 299 297 295 294 293 295 293 293 291 294 295 292 293 294 292 293 294 294 295 293 293 292 291 294 291 290 293 294 292 293 294 295 294 297 299 300 300 302 302 301 301 300 301 302 302 304 304 305 305 305
317 318 318 317 318 318 319 318 317 314 310 309 307 305 307 308 309 307 304 295 293 296 299 300 302 303 301 301 306 303 300 297 301 300 305 303 300 301 299 297 294 294 293 294 295 293 292 291 289 292 294 295 292 292 294 294 292 293 296 294 292 289 292 293 293 292 290 290 290 293 294 295 298 297 298 298 293 293 296 296 297 298 300 302 304 303 303 302
317 317 317 317 317 318 317 317 310 308 310 309 307 311 308 307 307 307 301 294 296 296 301 300 307 305 303 308 305 300 298 300 301 303 304 304 298 298 297 296 296 293 294 292 294 293 291 290 290 292 292 293 294 291 294 296 292 293 294 295 294 293 292 289 292 292 293 293 291 291 289 291 295 295 296 298 296 297 297 296 299 301 300 299 299 301 303 303
317 317 317 317 317 317 317 308 307 309 306 304 308 310 310 308 309 304 300 291 287 293 298 292 304 297 311 302 305 300 300 296 300 302 304 303 303 299 295 295 295 292 291 293 293 293 291 288 291 292 292 294 295 293 295 297 293 291 292 294 293 293 294 293 292 294 290 288 291 289 288 288 296 295 297 295 294 296 299 298 299 300 300 299 300 301 301 301
317 316 317 317 317 316 308 301 310 309 301 304 311 310 306 310 311 303 296 287 285 294 292 297 296 298 307 302 302 301 289 293 302 302 302 304 301 300 296 294 293 293 292 295 292 289 289 289 291 294 294 294 293 291 293 295 294 291 292 292 294 294 294 294 294 295 292 292 291 290 292 288 289 295 296 292 292 296 298 300 301 299 299 299 299 300 301 302
317 317 316 317 316 314 308 309 307 303 304 307 313 311 309 309 308 300 294 278 279 298 292 291 296 306 306 301 302 296 296 302 296 300 301 303 301 299 298 294 294 293 291 293 287 294 291 288 291 291 294 292 293 294 297 297 294 292 288 294 295 295 296 295 295 292 291 291 289 291 294 288 288 294 294 293 294 297 297 299 300 299 301 300 301 302 302 302
316 316 316 316 315 313 311 308 306 303 309 308 311 310 308 306 303 297 288 279 292 292 306 293 306 303 298 300 297 296 298 299 296 299 302 301 302 299 296 294 294 293 293 292 292 290 292 293 293 294 293 292 292 287 291 296 295 289 291 292 291 293 293 295 293 293 291 289 287 289 289 287 288 296 295 293 292 294 298 299 296 299 301 303 303 303 303 301
316 316 316 315 312 310 309 310 307 308 308 308 309 307 305 301 296 288 281 276 295 287 293 296 297 295 298 295 295 296 296 296 297 298 299 298 299 300 294 297 296 295 296 296 296 292 293 293 293 293 293 293 290 290 291 291 293 292 294 295 295 295 294 292 292 290 289 284 287 285 285 286 285 295 293 293 295 297 297 296 296 299 301 301 302 302 302 300
316 317 315 313 308 308 308 303 308 308 309 308 308 307 302 300 289 283 275 286 297 291 293 292 292 299 294 293 291 293 296 295 296 298 295 298 296 298 297 295 298 295 293 295 293 295 293 294 295 292 290 291 293 292 292 291 293 295 295 294 293 292 293 291 289 290 285 284 284 284 285 287 283 290 295 295 294 292 296 296 298 299 300 302 303 301 300 299
315 316 315 311 310 311 305 302 308 308 308 309 309 302 296 284 288 280 279 295 285 288 290 289 292 295 294 296 295 293 293 295 296 297 294 295 294 293 294 291 293 286 287 288 289 294 292 293 293 293 294 292 296 293 291 292 293 295 295 294 289 285 286 283 286 283 283 284 284 285 285 284 285 292 294 294 295 295 294 297 299 298 298 300 301 302 300 301
315 315 314 312 310 309 310 308 309 307 308 309 305 299 291 284 275 285 285 288 285 292 289 295 292 294 294 294 292 293 295 292 295 294 296 295 294 295 293 293 296 293 286 291 290 290 290 294 293 294 295 294 297 291 288 289 292 293 292 291 287 283 281 280 282 281 282 283 284 285 287 283 291 293 297 296 298 296 295 296 297 297 297 298 300 300 299 303
315 314 310 310 311 312 310 310 310 308 306 306 299 294 290 280 280 293 288 287 288 289 293 292 292 294 294 291 293 295 291 291 293 293 295 292 293 291 292 291 291 293 293 290 288 289 284 285 291 293 291 297 293 295 294 294 292 293 298 295 289 288 283 279 281 280 282 284 283 284 282 286 286 292 295 295 295 293 294 293 295 295 295 296 297 297 299 301
314 312 312 310 310 308 309 310 309 309 308 300 294 290 281 280 287 285 286 287 288 291 290 295 293 292 289 291 293 293 294 290 294 292 293 291 289 292 291 292 291 295 296 288 289 289 288 288 290 291 291 291 295 294 294 295 292 292 292 294 289 288 294 285 283 284 281 283 281 282 285 290 292 296 295 295 293 293 292 293 293 294 296 296 297 301 303 303
311 309 310 308 309 307 309 310 310 308 304 297 291 286 283 287 284 291 288 293 290 290 290 294 293 290 289 290 291 292 295 293 292 293 291 293 293 291 295 295 292 294 292 289 291 286 285 285 290 293 291 291 293 292 293 295 287 291 290 288 291 294 290 280 280 279 279 282 282 287 286 291 293 294 295 292 292 294 292 292 292 295 296 296 299 303 303 303
306 308 304 307 308 308 310 311 310 307 303 295 289 284 290 289 294 293 293 292 292 294 292 286 287 288 287 286 289 291 291 295 290 291 288 293 289 293 292 293 296 293 295 296 288 294 288 286 290 292 291 291 291 290 293 291 293 292 286 291 290 294 296 289 283 281 282 281 283 283 284 287 286 286 296 294 292 293 293 294 293 293 295 296 302 305 303 302
305 306 306 306 309 310 311 312 310 306 300 293 287 290 290 290 291 293 294 293 294 295 291 290 288 293 287 288 288 290 293 291 288 289 290 291 289 297 293 294 294 295 294 293 293 291 294 284 288 288 290 293 292 293 293 294 292 293 292 297 291 285 285 286 286 278 278 278 282 284 282 282 287 290 294 292 292 294 293 294 293 294 296 299 301 301 302 301
307 304 298 305 310 311 310 312 309 301 295 288 288 288 292 294 294 293 294 296 296 295 290 291 289 289 292 288 290 292 292 288 290 289 288 289 287 294 293 295 293 294 295 293 293 291 296 288 285 290 291 292 294 294 287 290 293 293 291 290 290 292 289 285 286 287 286 282 277 282 280 285 290 291 294 294 293 294 292 291 293 296 298 298 299 300 302 304
303 299 296 307 310 311 312 310 304 300 294 286 288 288 293 292 293 296 294 295 293 293 292 291 292 288 290 291 292 288 291 292 289 290 291 292 290 292 292 296 294 292 293 292 295 297 289 292 285 288 291 290 288 291 290 291 287 287 289 288 291 288 290 290 287 285 285 282 280 281 281 286 292 292 292 294 293 294 294 294 296 297 298 298 298 301 302 304
305 300 297 308 310 311 311 306 298 293 290 290 292 291 291 294 294 295 295 294 295 294 293 293 291 289 291 289 289 293 290 290 291 289 289 289 290 287 293 295 295 291 293 295 295 293 288 287 286 286 286 287 290 290 289 292 293 291 290 287 291 286 285 283 282 283 281 284 278 277 280 289 297 289 292 293 293 293 294 294 296 296 296 297 300 300 303 305
300 293 295 308 310 310 304 294 294 295 290 287 287 289 291 297 295 293 294 295 296 294 295 294 292 292 291 291 292 291 291 289 290 290 291 289 292 292 294 295 294 294 293 289 292 293 294 288 288 284 287 289 289 290 289 288 288 290 289 291 295 292 291 287 282 283 282 281 281 282 279 285 296 289 289 291 290 290 292 292 295 296 297 298 301 302 303 305
296 295 305 309 310 307 299 292 294 291 289 290 290 291 292 294 294 293 293 294 294 294 295 295 293 292 291 294 291 292 292 289 291 289 293 293 293 293 293 292 294 294 296 291 293 288 292 288 286 285 288 289 290 290 289 288 290 291 291 290 290 289 291 291 288 287 285 282 282 283 280 286 298 290 288 288 288 288 288 289 292 296 297 299 301 301 303 303
298 297 299 308 310 307 295 286 287 289 289 288 293 292 291 293 294 291 293 293 294 295 294 292 291 295 293 293 293 291 294 287 292 292 290 292 292 292 291 293 294 293 294 291 291 295 288 289 289 283 283 285 287 290 290 292 291 290 290 291 291 291 287 284 285 286 285 283 286 284 280 287 296 289 290 288 290 291 293 293 290 296 298 300 300 301 301 301
298 300 300 302 306 304 292 295 292 290 288 286 289 288 292 292 292 293 295 294 293 295 294 291 293 294 291 294 294 294 294 293 288 293 295 291 293 292 293 294 295 294 295 297 297 297 290 289 288 282 279 278 277 279 282 285 288 290 286 287 290 291 287 286 285 285 284 285 284 285 285 292 291 290 292 292 292 294 294 295 291 294 300 299 301 300 300 300
294 286 294 297 301 299 299 296 298 293 288 288 287 288 293 290 291 291 295 292 292 294 295 295 292 294 292 291 290 290 291 291 292 289 291 290 290 291 292 293 295 296 293 295 295 296 288 289 290 288 286 285 287 288 293 296 291 287 288 290 289 291 291 293 289 285 284 285 282 287 289 290 288 291 292 292 292 294 295 294 294 294 294 298 300 301 301 301
296 290 291 287 296 297 295 297 294 294 289 293 287 290 287 291 292 293 295 295 293 295 295 296 295 291 290 291 289 290 292 290 288 291 290 291 289 291 291 293 293 292 293 293 295 292 287 287 289 291 291 292 293 290 294 294 291 291 290 288 290 290 290 288 287 286 290 285 281 289 291 287 290 292 294 295 294 294 296 296 296 297 299 300 299 298 295 297
288 291 294 297 290 288 289 291 294 293 294 293 291 293 291 291 290 289 292 294 294 293 294 294 294 296 292 291 291 287 290 289 290 288 289 289 291 291 291 294 292 292 291 294 296 292 287 287 291 291 290 293 291 292 292 294 294 293 293 291 288 290 289 287 287 292 290 286 285 291 291 288 291 294 296 296 296 296 296 298 298 298 298 298 297 296 297 299
293 291 293 295 291 293 293 294 294 293 292 292 291 292 289 291 290 293 293 292 293 293 296 288 291 294 293 294 292 289 289 285 285 288 287 287 288 288 287 290 293 293 292 290 291 289 290 287 291 291 289 292 289 290 291 293 291 291 293 292 291 290 289 290 291 293 292 290 293 293 294 292 294 294 296 297 298 298 295 294 294 293 296 298 296 296 297 298
287 289 287 292 294 294 293 292 292 292 289 291 287 290 291 292 291 291 293 294 290 293 295 294 293 294 294 293 293 289 290 292 291 287 289 289 285 290 289 292 289 288 289 289 291 291 290 287 290 287 286 287 289 288 289 290 290 288 289 290 290 290 290 291 291 292 293 292 293 294 290 290 295 297 297 298 295 294 294 294 295 298 298 297 297 297 297 298
292 292 294 290 288 290 293 293 291 291 289 289 289 289 290 292 292 294 292 295 294 293 293 294 294 292 292 292 292 293 294 294 294 293 292 292 288 292 291 289 293 287 289 288 287 289 290 287 287 287 285 285 285 287 286 286 286 286 286 287 288 288 287 289 289 292 291 289 290 290 288 290 295 296 296 296 294 295 296 297 298 298 298 297 297 297 298 299
294 295 293 294 286 292 290 292 292 291 286 290 291 291 290 291 295 295 291 295 294 297 298 295 294 293 291 290 290 295 296 296 297 297 296 297 298 293 294 295 293 291 288 288 290 288 288 287 285 286 284 284 281 283 284 284 284 283 283 287 289 290 291 292 293 294 294 294 290 287 288 295 294 295 294 294 295 296 296 297 299 301 302 300 298 298 299 300
Wind_Speed
24 23 23 23 23 23 22 23 23 21 20 21 20 18 19 17 16 15 14 13 11 14 12 12 11 11 12 13 14 14 12 7 7 6 6 15 6 19 9 6 6 10 8 3 3 3 2 2 4 1 2 4 1 3 1 2 1 2 4 3 5 2 4 6 7 7 3 6 9 10 11 9 9 5 3 3 3 2 4 4 2 1 4 1 3 2 1 9
23 22 23 23 23 23 24 23 21 21 21 21 19 19 19 17 16 16 14 14 11 12 12 12 12 11 12 13 14 15 10 5 6 8 16 6 15 10 13 7 8 10 7 5 7 6 5 5 3 2 5 4 2 1 1 2 2 2 2 2 4 3 2 3 3 5 3 4 11 9 8 7 7 11 5 6 6 5 5 6 3 3 5 3 2 0 5 8
23 22 23 23 24 23 23 23 22 20 20 19 18 18 17 15 15 14 13 12 12 11 11 13 13 12 13 13 13 14 9 2 3 8 18 13 7 10 9 9 10 11 10 5 7 8 8 5 5 5 1 2 2 4 3 2 2 1 3 5 3 3 2 1 2 6 1 3 11 9 7 4 3 3 6 5 6 4 8 7 6 7 9 9 5 5 9 10
23 23 22 22 22 23 24 24 23 22 21 18 17 17 15 15 14 15 14 12 11 11 12 13 13 13 12 14 15 12 5 6 7 8 3 8 21 13 11 9 10 10 3 2 3 6 2 2 2 5 2 3 2 1 6 3 3 3 3 4 2 4 3 3 3 3 2 2 7 8 7 5 4 3 7 5 5 7 7 8 9 11 11 11 8 10 11 12
23 22 22 21 23 24 24 23 22 22 21 18 17 17 15 13 13 14 14 13 12 12 13 13 13 14 13 13 15 9 9 3 6 7 2 5 7 12 14 11 9 7 5 4 6 4 4 6 5 1 3 4 1 3 2 3 3 3 1 4 2 1 1 3 3 3 2 2 6 9 12 8 7 3 6 8 8 4 6 7 10 5 5 12 12 12 14 14
23 23 23 22 21 22 22 22 23 22 20 19 17 16 15 14 14 13 15 14 14 13 13 14 14 13 13 14 9 6 5 6 1 2 2 7 5 13 13 11 11 7 7 6 5 6 7 5 8 7 4 4 7 7 4 1 2 5 1 1 1 2 1 3 3 2 3 5 8 10 5 8 9 5 2 6 11 3 3 4 4 2 3 6 8 12 14 15
24 23 23 22 23 22 22 23 22 20 20 20 18 17 15 15 13 12 13 14 14 13 14 14 15 14 14 11 5 6 8 5 2 2 3 2 9 12 10 10 10 8 7 6 6 8 8 9 9 5 4 2 0 1 3 4 1 3 3 3 2 2 2 2 2 3 1 4 6 2 6 7 8 8 2 6 8 5 4 3 2 1 4 9 12 13 15 17
23 23 23 22 21 22 21 21 21 21 22 22 19 17 17 16 15 13 13 14 14 14 14 15 14 15 16 10 9 7 8 8 4 1 2 7 8 11 10 5 8 7 8 10 10 10 7 10 12 3 5 6 5 6 4 5 1 3 3 3 3 1 2 1 2 4 2 2 2 3 8 2 2 1 4 8 9 5 2 3 3 4 6 7 10 12 12 13
23 23 23 22 22 22 21 21 22 22 23 23 20 18 18 18 16 14 14 15 15 15 15 14 14 16 11 5 8 7 12 3 3 4 6 7 6 7 9 7 5 10 7 5 5 7 9 5 2 6 4 5 3 6 4 8 5 3 3 6 3 3 3 3 5 3 3 2 3 7 3 3 2 1 6 6 3 2 3 2 3 4 5 7 10 12 12 13
24 23 22 22 21 19 20 21 22 21 22 23 18 19 19 18 15 15 15 15 15 15 15 14 13 15 6 7 6 10 3 4 3 5 4 7 6 7 1 2 9 8 8 5 3 7 11 6 8 5 2 5 4 2 2 5 1 5 8 5 5 2 1 2 2 3 1 3 1 5 5 3 1 1 6 4 2 3 2 4 2 5 6 7 7 9 10 11
24 23 22 22 20 19 20 20 21 21 22 20 21 20 19 18 15 14 15 15 15 14 15 15 11 12 7 6 12 11 3 4 2 5 7 6 7 8 6 4 8 9 7 4 6 8 3 5 4 4 3 3 5 2 2 2 6 9 12 10 8 5 5 4 5 4 2 4 2 3 4 2 2 1 5 4 3 2 6 4 4 5 6 6 7 8 8 8
24 24 22 22 21 21 22 21 21 21 21 20 21 20 18 16 15 16 14 14 14 14 14 15 14 7 3 6 12 4 1 2 4 4 6 8 5 2 2 4 6 6 9 9 7 4 3 4 8 2 2 8 5 5 2 3 4 8 5 6 3 3 4 4 3 2 4 3 1 1 5 4 4 8 3 4 2 1 5 5 5 7 5 4 6 6 7 8
25 25 24 22 22 22 23 22 22 19 19 20 19 18 18 17 17 16 15 14 13 13 13 13 10 4 4 9 7 2 2 3 5 6 5 4 6 4 2 1 2 2 2 6 6 4 4 6 8 6 2 1 6 2 7 3 4 4 2 5 5 4 3 2 0 1 2 2 0 3 6 5 12 12 6 2 0 2 4 6 7 6 5 5 5 6 7 6
24 24 23 22 22 22 22 22 20 20 19 19 18 19 18 18 18 16 15 11 13 13 13 13 8 5 5 8 3 2 2 2 5 6 5 3 7 3 3 2 2 2 2 3 3 2 5 0 3 7 1 3 5 4 8 4 2 6 2 3 4 7 5 3 1 4 3 1 1 3 6 1 1 1 3 2 1 3 5 6 6 6 5 5 5 5 7 9
24 24 23 23 21 21 20 21 21 21 20 20 20 19 19 18 17 16 14 13 14 14 12 8 4 5 5 4 2 2 4 2 6 3 5 7 8 6 3 3 6 4 4 5 5 2 3 5 8 5 3 2 8 7 7 4 2 2 7 6 0 6 3 2 3 3 4 3 1 4 5 8 3 5 4 2 1 4 6 4 4 5 5 5 5 6 7 8
25 24 24 23 21 21 20 19 21 23 22 21 21 19 18 16 16 15 14 11 15 13 8 9 4 4 4 7 2 5 3 6 5 4 1 1 5 4 5 6 4 5 2 5 2 3 3 3 5 2 6 3 7 6 7 7 3 1 3 4 6 2 2 4 1 1 3 0 1 5 4 2 3 2 3 2 3 3 5 6 5 5 6 5 6 6 6 6
25 25 24 23 22 21 20 21 22 23 21 21 20 18 17 17 16 14 13 14 9 4 4 5 6 1 6 2 4 7 6 3 2 3 2 1 1 8 10 6 3 6 5 5 2 2 5 3 2 1 2 5 2 7 8 6 5 6 1 2 1 6 5 4 4 1 2 2 8 2 4 6 3 1 1 2 2 2 2 5 7 6 5 5 4 5 6 7
25 25 24 23 22 21 21 22 23 23 22 22 20 19 17 17 17 15 10 7 5 3 3 2 3 3 8 6 7 6 4 5 3 4 3 1 2 7 4 4 3 8 8 9 2 3 3 4 3 4 4 4 5 10 10 11 10 8 6 3 3 1 4 1 5 2 1 1 5 4 8 12 8 5 5 3 3 3 6 6 5 5 5 5 5 5 7 7
25 25 24 23 22 22 22 23 23 24 23 23 23 20 17 14 7 6 9 6 9 7 6 10 11 12 6 12 2 2 0 4 5 3 4 7 1 2 5 4 6 12 6 6 2 3 1 4 1 6 9 8 11 12 11 2 7 12 12 6 5 8 7 6 2 3 1 6 7 8 10 10 11 12 9 3 2 4 7 5 5 6 6 6 6 6 6 7
26 25 24 23 22 22 24 23 24 28 27 22 19 15 11 9 8 7 3 2 2 4 5 11 6 4 2 2 10 2 2 2 6 2 4 1 7 5 5 2 3 3 8 7 5 3 2 8 9 10 10 8 8 3 3 2 5 5 4 3 3 5 3 3 2 4 1 1 9 9 9 10 12 11 10 4 3 5 8 9 8 8 7 7 7 8 8 8
26 25 25 24 23 23 23 25 25 27 25 18 20 16 11 19 20 14 13 4 2 2 1 10 10 2 3 2 4 13 13 2 3 5 4 1 1 11 2 3 8 6 1 2 5 1 2 7 8 4 4 9 7 6 7 8 3 10 7 6 3 3 3 2 2 2 1 3 1 1 6 13 14 13 12 8 4 11 11 11 11 10 9 7 8 9 9 10
26 26 24 24 23 24 23 24 27 22 20 13 16 7 4 3 3 5 15 10 1 1 3 5 4 2 0 1 2 3 3 7 6 5 1 3 8 9 4 5 9 10 2 4 5 4 5 9 4 4 5 9 7 4 1 5 7 2 6 5 4 4 3 3 2 1 2 1 4 2 5 11 12 11 11 10 11 9 9 11 10 8 8 6 6 8 8 6
26 25 25 24 24 24 23 25 23 20 12 14 13 4 3 3 4 8 1 12 8 1 5 11 8 3 4 1 3 1 6 6 11 7 7 4 8 2 10 8 6 5 2 6 9 6 5 6 3 6 7 9 4 3 7 7 4 4 4 5 6 3 6 4 3 3 2 2 2 1 6 10 10 9 12 11 8 7 5 6 8 6 8 8 7 5 5 7
26 25 25 25 23 23 23 23 19 12 9 13 10 6 2 3 2 3 11 5 7 3 0 3 2 4 7 9 5 5 4 1 7 12 2 5 10 3 8 5 9 7 8 8 7 9 4 3 3 8 6 11 8 3 8 6 6 2 2 3 4 4 3 3 4 4 2 1 1 3 6 11 7 9 9 3 0 4 9 8 9 9 9 8 7 8 8 10
26 26 26 25 24 24 23 20 12 11 11 12 12 7 3 1 1 3 8 6 4 3 1 2 2 2 4 3 2 4 3 4 5 4 1 4 7 7 5 1 4 6 7 3 5 3 1 1 2 7 4 3 8 6 7 7 5 4 5 3 3 5 8 4 7 8 4 4 2 2 4 6 1 5 8 2 3 4 3 4 8 7 6 6 9 10 7 9
26 26 26 25 25 24 23 12 11 12 14 13 6 4 2 3 3 1 2 5 9 3 2 10 1 5 4 3 3 3 5 5 2 1 2 0 3 3 4 2 2 10 7 7 6 1 1 1 3 8 8 6 6 6 5 4 6 4 4 5 4 5 8 8 8 4 3 3 2 2 7 4 1 2 3 1 4 8 4 6 8 4 5 6 6 5 5 5
27 27 27 27 27 24 17 7 12 14 12 11 12 4 2 3 2 1 5 3 7 6 8 1 1 3 1 3 3 6 10 7 2 3 3 2 4 3 8 5 2 6 2 3 2 4 4 3 3 2 7 8 6 6 6 7 4 6 2 4 8 9 10 8 9 3 2 3 2 1 2 5 6 6 2 2 4 7 6 8 5 3 4 4 3 3 4 4
28 28 27 28 27 22 5 13 17 17 9 2 4 7 2 3 2 2 0 7 5 8 6 3 2 1 0 2 1 3 5 13 8 6 2 0 1 4 2 10 8 9 4 5 9 3 3 6 4 8 4 5 9 2 6 8 5 1 1 1 6 6 6 7 5 3 2 1 3 3 2 3 6 3 2 2 4 6 7 7 4 3 3 2 2 3 3 4
28 27 28 27 26 13 10 11 18 15 10 3 5 7 3 4 2 3 3 5 2 4 4 8 2 2 4 2 5 3 3 5 1 4 1 2 5 2 5 3 5 9 5 2 2 2 2 4 5 3 9 8 2 2 1 2 5 1 4 6 7 7 5 3 3 4 2 2 6 5 3 4 9 3 3 1 2 7 8 3 3 3 3 1 2 2 2 2
28 27 28 26 15 10 7 9 10 5 6 5 8 6 5 2 4 7 5 6 7 6 1 2 5 9 7 13 3 2 7 2 2 5 2 4 3 4 6 1 8 8 4 6 8 2 1 2 3 1 3 3 6 5 1 3 4 11 7 11 7 6 3 2 3 1 1 4 3 4 2 2 5 2 4 5 6 4 1 1 2 2 3 3 3 3 2 3
28 29 25 24 12 10 12 9 9 3 6 6 8 9 6 4 6 5 8 2 5 4 2 4 5 7 14 16 10 0 4 2 4 11 7 3 5 5 6 6 3 5 4 3 4 2 2 2 2 1 1 3 1 8 7 2 5 6 3 6 9 5 1 2 2 1 3 4 4 2 1 2 6 2 3 3 3 3 1 3 7 4 3 2 1 1 2 3
28 28 27 15 10 9 10 8 9 6 7 9 9 5 7 7 2 8 5 5 9 7 7 9 1 11 17 12 6 7 9 4 1 9 13 10 10 11 10 9 8 5 4 9 5 2 4 3 1 2 2 1 5 10 4 2 3 2 6 8 7 3 1 3 2 4 7 4 2 2 2 2 13 8 5 5 8 5 6 4 2 1 3 3 2 2 3 3
29 26 26 10 14 7 1 5 9 6 9 9 7 4 6 6 11 10 6 9 2 9 7 4 9 11 11 9 7 5 3 9 3 1 4 2 8 2 5 1 5 2 9 5 5 3 2 4 1 2 2 4 4 9 5 4 5 5 11 9 7 5 4 4 2 2 3 1 1 1 1 5 5 7 13 15 8 2 3 7 5 5 7 8 6 5 5 4
29 28 13 9 7 3 5 8 7 9 11 9 8 5 2 5 6 7 7 2 3 4 7 6 9 10 16 9 10 8 6 5 7 6 5 6 6 7 6 1 4 3 5 3 8 8 5 4 7 10 6 4 3 2 5 5 12 6 3 6 5 4 4 5 4 6 3 1 2 2 1 3 3 0 2 3 3 2 2 4 4 6 7 6 6 7 6 4
30 21 11 8 4 3 7 7 10 11 7 8 9 9 12 14 5 13 10 7 2 3 6 8 16 14 4 4 3 2 0 4 2 8 6 11 9 7 12 10 5 3 3 10 3 1 6 1 3 4 2 2 5 2 1 8 6 2 1 4 1 4 1 1 1 1 2 2 1 2 5 2 3 2 6 5 4 5 4 5 3 6 4 3 5 4 3 2
22 9 10 10 6 6 7 6 9 9 8 10 11 9 12 10 7 7 6 7 4 9 10 10 7 12 5 5 2 3 3 2 8 5 0 6 7 11 9 4 8 9 9 9 6 6 3 5 3 1 1 1 2 2 0 3 7 6 4 4 1 5 8 6 2 2 2 1 3 2 5 4 6 9 2 1 1 3 2 2 2 4 2 2 3 3 2 2
11 12 9 10 8 8 8 8 7 7 6 11 11 11 8 4 1 7 5 10 10 20 16 15 9 9 11 9 8 10 4 6 2 4 8 3 2 6 7 6 5 9 7 5 2 2 6 4 2 1 3 3 1 1 1 5 3 7 4 6 4 1 2 1 3 1 0 3 2 2 6 4 2 3 2 3 3 2 3 4 2 3 1 3 3 1 1 2
13 9 9 11 9 9 7 8 10 5 4 9 12 15 5 5 3 3 6 13 11 10 12 9 2 2 9 9 8 10 6 6 9 3 6 10 4 8 7 5 4 9 8 4 4 4 4 4 1 2 1 1 1 2 4 2 2 1 1 4 4 3 4 1 2 2 3 2 2 3 2 4 6 7 1 2 4 4 4 3 2 3 3 4 2 0 1 2
10 10 8 9 9 10 9 8 7 8 7 7 13 10 1 3 2 6 6 11 3 8 11 3 8 4 5 11 8 8 10 8 9 8 8 5 6 6 14 8 6 4 6 3 3 3 2 2 1 2 1 0 2 2 7 4 2 3 2 3 2 2 1 5 3 1 1 3 0 2 2 5 7 7 6 4 3 1 1 4 7 5 5 3 1 1 1 1
13 7 5 7 10 10 10 10 8 5 5 12 15 2 3 4 3 2 3 10 7 7 5 7 4 8 5 3 12 10 7 5 12 7 4 4 7 4 4 2 6 7 4 1 2 3 4 2 3 2 2 1 5 5 7 9 8 4 5 5 2 2 2 2 2 1 2 2 2 2 2 2 3 5 6 5 4 3 2 4 4 4 5 3 2 2 2 2
2 7 6 9 10 11 10 9 9 10 10 2 6 4 1 4 5 4 2 4 4 5 4 8 8 9 7 7 5 3 5 6 8 6 6 4 9 4 8 10 8 8 3 3 3 3 3 1 4 4 3 6 1 4 3 3 1 3 7 9 9 8 5 5 5 3 0 2 3 3 5 1 4 3 7 5 2 3 3 0 3 4 5 5 4 3 2 4
7 10 7 14 13 15 12 14 6 2 0 3 5 2 5 2 7 9 4 1 3 4 3 6 3 6 9 8 10 10 8 6 5 6 5 7 11 7 2 9 8 15 12 9 9 1 2 3 5 5 3 2 2 1 1 1 1 1 2 3 4 2 3 4 6 4 1 1 4 0 2 3 1 1 1 1 1 3 1 1 3 3 5 5 5 4 3 1
4 6 10 13 13 14 10 8 3 3 3 1 4 3 3 2 4 3 7 2 3 1 3 2 7 8 3 4 5 7 13 6 13 12 9 8 3 6 3 9 10 13 9 2 7 2 3 4 4 3 3 2 2 2 2 2 1 2 3 0 3 9 7 4 1 4 5 3 2 1 2 3 1 2 2 3 4 5 4 4 5 2 3 5 5 6 5 3
4 10 10 9 12 9 12 12 13 14 5 2 2 3 3 2 6 7 4 2 4 4 5 5 2 4 6 3 6 10 11 5 6 3 0 3 4 3 4 10 15 9 11 10 12 10 4 3 6 4 2 1 1 1 1 1 1 5 3 4 1 5 7 2 4 1 1 5 3 4 6 5 1 0 0 2 2 5 5 4 4 3 4 4 6 4 2 1
8 3 4 7 6 6 13 6 7 8 7 5 4 6 5 3 4 2 4 7 1 2 6 3 3 6 5 4 6 5 13 8 4 5 3 3 2 1 1 8 13 11 1 2 5 8 4 5 10 7 7 7 6 8 8 8 12 4 0 2 5 8 9 6 3 3 5 3 5 3 8 3 1 1 1 2 2 5 3 3 3 4 4 7 6 4 3 2
5 9 4 6 7 5 2 2 2 10 12 9 6 3 4 6 0 1 2 4 1 2 2 5 2 4 7 8 6 8 11 3 2 5 7 4 2 1 0 3 8 4 1 6 10 12 2 2 7 11 14 11 12 13 12 7 6 6 10 14 13 12 8 2 3 2 8 4 7 11 13 3 3 3 6 3 3 6 7 4 6 7 8 6 2 2 2 3
1 5 10 10 7 8 7 3 4 10 11 13 8 9 6 10 8 3 2 4 6 4 3 1 6 9 5 12 10 9 11 8 2 7 9 9 1 1 2 2 2 5 1 5 8 6 2 3 8 10 11 11 10 7 6 15 15 16 16 13 9 11 9 11 9 10 5 7 7 11 11 6 7 5 7 7 4 4 4 6 7 7 8 7 5 3 4 5
3 2 1 1 2 16 16 14 11 11 10 13 2 6 10 12 10 9 2 3 3 3 6 2 3 6 17 16 11 7 8 5 3 5 3 1 6 0 4 3 4 1 1 2 4 5 5 8 7 8 12 10 4 6 8 8 9 9 13 13 14 14 11 12 14 12 10 10 13 17 14 14 12 9 8 9 7 8 11 10 6 2 1 2 4 5 5 5
2 1 1 3 1 0 12 7 11 7 13 15 2 7 9 14 15 9 7 6 3 6 4 6 12 9 13 11 12 7 13 7 6 2 4 5 6 5 3 3 1 2 2 3 3 1 5 7 6 9 13 10 2 3 4 10 6 2 8 11 13 14 16 18 16 16 14 14 15 16 6 17 6 12 9 8 8 3 2 2 0 3 9 9 6 6 7 6
1 3 1 3 4 6 12 14 11 12 11 14 6 8 8 11 13 4 0 8 8 11 2 6 13 9 10 12 10 11 15 16 17 11 5 11 2 3 8 4 5 2 1 4 4 3 6 3 6 4 5 8 4 3 2 3 7 9 2 4 10 11 15 19 18 18 15 15 15 11 1 10 7 8 8 3 5 3 1 3 6 8 8 7 7 7 6 5
1 1 1 6 5 3 10 11 11 12 10 10 11 7 5 8 11 7 4 3 7 10 7 8 12 8 4 9 5 8 12 7 9 17 18 18 14 11 9 5 10 9 6 3 2 1 3 2 2 4 4 4 2 6 2 3 1 2 5 7 11 12 12 12 12 15 14 16 19 15 11 13 7 12 5 5 3 4 6 8 7 6 7 8 7 7 6 6
0 2 2 1 4 4 10 9 9 10 8 12 13 10 8 11 7 9 6 1 2 1 6 11 11 10 4 8 10 7 9 6 7 4 11 2 5 7 3 7 14 15 8 9 5 6 7 5 4 5 9 8 1 2 7 7 3 3 8 13 18 18 18 18 17 12 12 16 13 7 16 8 10 12 10 9 8 8 10 8 8 10 10 7 8 8 7 6
Wind_Direction
175 171 170 171 172 173 169 168 171 176 178 176 174 171 173 174 175 176 178 168 160 173 161 162 157 154 149 145 139 137 129 118 149 156 183 233 179 222 230 211 186 158 167 128 123 140 236 226 189 347 187 214 37 185 100 101 24 224 210 200 197 106 206 163 185 189 5 158 157 174 186 180 163 165 143 185 156 64 125 204 113 178 235 335 71 330 318 148
173 172 169 171 172 171 171 169 170 176 179 180 174 173 174 172 174 178 177 175 157 171 165 163 160 157 151 146 147 139 133 114 177 181 219 135 199 229 214 199 165 160 149 197 188 189 213 207 211 246 186 178 314 109 221 130 267 206 106 238 207 180 88 182 165 140 163 135 158 166 186 213 167 162 170 199 173 178 179 202 192 208 197 149 192 153 172 172
171 171 169 169 170 171 172 169 171 175 177 178 174 173 179 176 176 173 174 174 163 168 167 165 161 158 155 153 152 151 122 125 208 223 252 214 237 198 182 199 171 170 181 185 209 185 210 232 172 165 312 167 343 147 235 104 270 56 229 196 216 176 80 227 160 152 349 136 144 154 176 234 106 187 135 232 161 176 214 192 191 214 205 197 148 149 166 175
169 171 170 169 169 171 172 170 171 176 177 177 172 172 173 171 170 175 172 173 162 168 165 166 163 159 158 161 155 160 174 158 211 231 272 174 205 180 183 167 182 179 203 35 170 191 83 69 164 214 151 207 115 310 179 107 228 133 219 216 152 147 164 151 208 89 100 313 146 146 132 186 154 157 187 167 172 212 230 227 206 202 202 181 152 161 168 175
169 169 171 170 171 173 169 167 168 172 175 174 168 169 166 165 169 175 172 170 170 167 165 166 167 161 163 165 162 161 172 216 227 196 140 289 265 186 175 166 165 158 222 129 105 98 185 182 165 16 217 162 153 154 149 95 347 154 346 6 0 145 180 101 141 80 121 329 141 138 155 174 114 135 206 184 213 195 219 225 221 243 180 160 162 167 172 180
169 169 171 170 173 172 168 165 165 166 166 168 167 165 162 162 168 173 176 170 173 167 167 172 169 167 162 167 158 172 215 208 103 72 357 313 214 185 167 144 146 138 135 157 146 153 170 192 183 186 188 178 172 183 132 88 11 197 139 355 55 341 334 101 147 144 168 143 159 169 147 109 170 166 199 229 225 56 43 24 352 348 81 130 137 154 175 184
168 167 168 172 173 172 167 165 162 162 166 167 168 162 155 160 164 172 172 172 172 172 172 175 172 166 164 141 151 176 224 273 26 123 307 60 131 142 131 123 137 148 173 123 141 156 197 181 200 183 159 103 225 107 130 148 288 292 148 136 121 328 52 5 106 118 171 175 160 101 120 166 163 188 140 223 229 82 85 17 351 42 120 141 150 172 180 187
167 167 166 168 171 171 165 161 160 165 167 168 171 158 155 162 168 170 173 173 177 176 179 177 174 166 151 151 140 204 218 240 164 267 138 84 91 105 110 117 152 162 179 177 165 177 173 178 190 119 198 189 165 171 143 139 214 197 141 186 111 339 29 27 90 134 134 74 60 141 164 126 187 117 129 235 232 202 124 54 83 108 132 158 164 174 186 193
166 166 165 167 172 169 163 158 159 162 165 167 165 156 162 168 170 170 174 177 176 179 180 177 173 170 176 185 187 160 225 156 132 151 125 104 104 113 139 138 200 168 179 169 198 166 165 204 133 202 199 203 178 145 198 175 213 195 86 126 131 94 81 92 106 101 126 113 167 157 135 61 96 346 253 241 136 21 20 199 117 134 153 173 181 180 183 193
165 164 163 165 169 167 163 158 158 160 164 167 153 154 164 167 161 170 178 175 173 177 178 176 172 173 171 170 178 203 194 122 122 144 115 112 121 118 212 169 171 161 149 179 146 167 194 176 186 175 123 55 189 125 95 244 135 104 115 106 112 88 104 339 103 108 67 105 266 175 149 96 95 282 229 83 51 349 196 190 157 190 188 186 185 186 193 196
162 162 163 163 163 164 162 156 155 158 159 158 153 156 162 159 157 168 173 174 170 174 179 173 172 165 173 227 172 210 106 148 148 134 144 129 129 153 181 175 187 164 164 134 195 203 183 137 115 107 288 177 143 119 235 112 120 117 124 107 82 100 74 93 94 91 183 114 313 202 113 67 111 143 249 109 26 285 213 189 197 216 205 189 191 189 194 203
160 162 163 162 161 163 160 152 154 163 155 155 156 155 160 157 159 165 167 169 170 172 176 176 174 184 224 201 212 199 206 53 144 137 126 146 136 149 135 189 217 177 159 169 209 209 203 157 155 135 191 140 161 122 125 166 127 136 163 131 107 140 113 18 106 76 300 124 192 266 133 196 168 228 186 94 16 164 212 204 201 214 213 189 191 199 200 205
160 162 163 160 159 160 159 154 151 151 149 154 156 154 154 155 157 161 164 164 168 171 171 172 172 210 208 190 229 71 76 129 123 120 100 83 101 75 86 178 208 177 191 183 196 174 168 156 183 126 11 226 135 193 114 102 86 155 52 118 126 168 163 49 316 9 256 89 332 230 228 212 207 211 121 127 115 152 191 210 203 210 207 204 201 208 212 205
159 160 159 159 160 159 159 156 145 142 147 153 152 150 152 154 156 155 156 160 163 163 167 164 169 184 223 213 64 342 134 130 136 122 123 160 125 85 117 74 91 78 345 104 54 109 126 159 96 99 57 113 127 216 133 81 265 168 137 241 194 173 188 73 24 347 186 64 236 238 248 207 114 170 57 81 165 217 214 202 201 206 211 209 209 213 217 215
158 157 156 158 158 157 156 156 142 139 149 153 151 148 149 153 149 149 148 153 157 154 129 110 174 174 191 228 52 56 147 196 165 172 169 151 133 112 140 170 60 55 78 90 119 112 129 155 128 140 97 300 122 145 111 114 68 84 149 191 90 222 135 109 86 358 203 130 270 218 259 255 207 154 126 61 188 197 241 217 205 216 216 213 215 221 225 226
157 156 154 156 156 156 155 150 143 145 154 152 145 143 144 142 146 145 147 150 145 135 149 141 178 270 195 209 131 118 193 179 185 127 227 205 155 137 142 113 133 91 114 64 70 115 74 84 84 91 117 98 175 156 136 134 155 260 251 126 182 235 141 172 140 46 5 107 159 242 267 45 234 10 94 90 108 175 237 246 235 233 234 224 222 221 231 231
156 154 154 154 156 157 153 149 145 148 152 140 135 135 133 137 140 138 135 133 122 149 193 155 150 281 201 32 101 199 188 151 45 120 125 36 82 135 129 122 111 88 84 121 116 141 14 97 264 135 351 166 181 160 154 189 159 185 331 156 80 194 154 206 86 162 22 255 195 190 247 241 50 223 199 160 105 119 237 250 248 244 244 235 224 225 226 230
154 153 153 154 156 156 154 149 147 148 139 133 133 127 128 134 126 114 102 111 146 146 135 47 164 110 255 124 197 196 85 117 169 114 59 34 191 149 110 117 95 126 131 110 12 138 315 123 263 159 144 151 173 184 188 193 178 166 177 163 175 306 243 239 175 126 266 92 235 188 246 255 240 219 231 223 159 237 255 254 261 260 250 240 232 231 233 235
153 153 152 155 155 155 152 150 147 141 135 128 123 118 118 118 135 125 129 169 148 128 171 180 175 193 185 174 167 91 129 109 107 137 149 132 96 105 81 74 126 138 135 153 184 153 106 96 170 152 184 176 191 195 207 114 165 184 182 176 140 176 197 207 88 68 284 190 219 213 228 241 245 253 255 214 180 240 263 262 257 250 249 251 242 238 234 235
152 153 154 154 155 153 152 151 145 143 136 136 136 137 139 147 152 140 164 246 236 148 347 153 212 356 63 160 137 46 126 233 133 348 127 330 142 141 64 126 51 44 146 172 136 142 337 164 185 191 190 178 186 226 25 79 176 103 90 123 168 183 111 45 86 52 300 239 231 235 255 275 272 264 265 250 162 254 262 263 252 242 234 231 232 230 231 230
152 153 155 155 154 153 152 150 146 148 146 150 152 157 172 171 151 170 167 149 120 303 5 173 172 168 356 73 121 153 135 82 13 141 147 90 273 151 163 159 162 169 107 21 129 155 208 194 207 175 145 169 148 107 116 82 98 159 164 176 160 239 169 58 96 59 53 238 199 56 268 262 260 265 264 260 220 253 245 250 250 249 237 226 225 234 227 234
152 154 154 155 154 153 152 150 151 149 146 157 173 190 344 163 305 92 127 132 156 161 209 133 91 104 108 138 201 356 343 109 125 130 119 188 176 192 174 189 171 176 98 140 108 141 190 208 160 118 98 85 94 110 62 126 127 87 176 174 165 188 58 128 77 72 59 171 255 83 264 261 259 260 260 242 234 239 231 236 246 247 243 230 222 233 241 241
153 153 153 153 154 153 151 150 154 149 149 170 192 270 229 33 298 125 52 112 99 269 122 144 164 134 109 61 228 323 168 143 160 195 168 213 157 271 141 168 164 102 166 182 168 154 190 222 132 121 138 119 85 131 116 94 76 141 123 162 198 115 179 197 143 132 53 309 349 340 285 276 268 250 251 250 235 245 254 263 261 252 251 244 238 237 245 251
153 152 152 152 149 151 145 149 141 136 166 180 196 230 319 326 313 219 137 129 134 116 183 177 101 156 166 153 199 182 180 118 146 175 93 179 167 143 152 147 126 145 176 199 174 178 164 34 21 146 171 155 148 163 162 174 182 314 227 148 130 149 213 352 133 129 111 130 279 248 264 272 236 245 245 184 347 270 261 252 248 243 237 254 284 282 251 253
152 152 151 150 149 142 144 135 147 166 149 193 232 247 233 250 350 300 119 97 91 86 305 42 148 253 170 49 32 180 137 89 5 80 104 198 135 148 154 80 140 187 148 132 114 112 160 40 165 129 149 107 133 168 198 179 207 176 235 216 134 173 148 100 114 146 181 208 97 351 272 254 163 238 245 324 314 246 191 236 242 224 205 207 233 241 244 243
152 151 149 148 147 145 131 139 167 155 172 200 204 243 206 181 275 320 146 94 161 124 102 176 159 177 126 168 91 161 143 136 318 70 87 241 2 129 112 135 314 179 148 152 159 122 76 71 220 156 153 147 169 185 186 218 191 185 204 168 130 146 129 133 143 185 194 226 99 307 235 265 116 241 169 256 293 277 237 224 246 218 222 206 225 226 225 231
151 151 151 148 149 138 148 177 146 147 165 226 232 195 199 177 219 314 155 63 185 168 154 48 54 161 284 112 163 150 168 179 123 114 135 345 172 341 173 137 94 36 113 139 83 207 124 126 125 105 128 153 156 199 193 198 154 208 71 141 116 131 143 162 156 213 43 48 123 190 334 266 282 247 83 290 277 272 270 248 212 220 224 215 208 225 241 242
152 152 150 151 148 155 133 134 146 172 188 97 132 158 152 161 138 280 141 129 208 126 167 204 250 317 234 109 32 225 347 125 128 191 8 30 214 103 326 176 173 151 165 165 194 63 130 140 192 147 165 159 193 168 137 205 181 255 189 246 132 144 122 134 153 131 58 260 211 144 344 259 244 268 116 346 271 235 242 231 172 190 186 182 248 254 245 254
152 151 150 147 149 130 113 152 163 177 201 96 140 115 127 132 218 153 164 183 51 102 330 120 260 126 90 147 105 4 141 340 172 105 328 70 26 231 173 167 90 104 50 319 182 140 327 189 195 162 157 189 76 3 308 208 152 247 138 96 97 93 84 111 135 123 168 197 243 145 348 248 269 175 223 29 298 273 247 191 157 193 161 218 267 270 281 272
151 150 147 141 111 115 128 144 186 189 84 145 132 123 115 165 140 183 144 229 140 153 107 94 194 169 166 153 130 33 170 36 41 130 80 150 92 57 26 309 121 118 89 47 64 30 299 0 262 67 226 44 119 48 60 6 59 130 183 111 97 71 78 87 53 64 164 239 222 56 333 284 294 202 207 173 217 245 287 339 179 222 251 240 239 269 309 322
152 150 144 142 146 148 137 167 187 123 135 128 138 141 153 40 177 149 185 172 98 72 84 166 150 134 165 162 165 327 92 30 141 149 135 166 87 80 146 99 45 70 83 65 63 33 86 118 139 70 55 137 112 89 39 66 122 157 153 132 114 75 103 104 81 314 220 237 84 354 0 286 221 258 243 269 336 235 275 150 146 170 177 208 236 271 316 319
150 149 147 153 135 145 158 190 157 142 147 153 144 149 170 135 351 195 176 126 184 176 188 168 213 167 179 172 108 154 140 88 73 170 156 168 152 157 188 164 171 126 183 172 146 158 107 114 44 44 244 196 162 100 72 103 249 211 149 157 158 147 149 184 179 214 212 239 72 4 243 223 237 251 322 295 266 233 216 252 194 211 275 283 281 319 319 302
149 148 153 140 139 178 101 116 125 145 140 177 146 173 176 157 183 195 131 181 193 139 183 108 156 171 156 142 153 125 356 154 176 296 78 29 158 147 22 120 175 124 177 159 105 159 126 144 163 98 172 224 242 143 139 174 206 195 173 166 165 156 168 207 178 353 334 28 11 96 62 269 304 276 243 249 257 106 225 239 257 268 280 295 308 328 319 311
148 149 150 156 154 97 123 135 124 140 147 163 157 133 47 170 205 58 138 198 105 347 96 123 115 123 159 180 159 179 131 346 179 165 182 145 167 164 197 334 164 121 63 141 165 180 158 236 197 165 180 133 219 298 179 168 166 202 7 178 193 164 161 187 171 198 209 130 110 226 227 236 165 124 44 253 340 341 299 281 274 272 271 278 301 292 278 281
147 149 131 134 99 101 137 139 136 157 158 155 161 178 167 196 162 165 170 163 186 116 102 142 133 147 125 39 114 252 34 124 297 136 160 153 187 186 178 189 212 133 128 145 259 135 210 77 39 359 330 352 184 292 330 95 54 29 250 21 151 203 38 210 48 346 112 143 154 191 237 335 254 348 248 258 279 265 241 258 250 264 256 282 289 271 275 305
140 137 142 149 136 159 145 141 139 163 178 166 161 184 203 189 184 179 168 113 120 133 125 111 109 147 142 115 309 232 319 112 180 169 238 205 182 186 186 175 175 203 165 178 139 179 44 203 7 333 155 31 8 313 334 290 181 181 139 199 154 28 103 112 101 61 314 340 248 138 274 243 268 282 295 30 303 232 171 195 214 258 280 283 258 270 270 346
132 136 147 151 143 151 150 143 148 159 207 181 170 191 204 37 44 100 132 145 152 134 141 141 189 160 172 177 171 193 154 88 157 192 182 142 241 206 177 213 178 189 238 105 171 286 171 118 9 354 143 36 0 322 338 57 313 107 215 177 133 232 38 164 204 90 282 237 241 118 240 252 54 259 354 326 175 229 242 214 250 274 285 246 233 219 348 304
135 137 119 154 150 145 141 143 139 153 183 193 199 193 11 143 307 95 132 108 137 157 152 153 98 9 167 149 182 168 186 177 172 228 168 174 220 161 186 176 189 194 173 320 177 193 128 101 123 341 331 347 112 277 94 43 38 299 338 128 160 163 201 192 132 191 171 222 255 206 307 273 224 229 346 256 216 188 211 196 187 212 217 207 197 300 325 267
127 126 138 154 144 143 147 139 137 155 171 192 207 192 183 43 59 152 177 130 96 147 157 201 142 229 160 178 147 149 163 186 153 185 152 219 213 176 187 173 187 174 151 160 120 108 0 144 114 48 79 310 317 253 186 164 48 78 175 112 325 299 354 159 205 31 204 231 69 255 103 259 180 213 214 199 206 158 169 171 192 198 186 183 151 270 205 146
137 127 141 145 149 146 150 137 114 174 209 199 198 170 117 108 161 184 281 136 162 167 185 145 236 130 185 168 145 165 197 178 163 196 251 145 199 17 208 12 160 151 110 16 90 190 152 319 155 99 302 164 180 204 214 168 163 128 173 171 141 42 296 11 44 164 219 189 199 281 256 237 209 212 215 197 178 157 138 145 169 209 201 196 222 201 170 113
152 100 120 152 155 155 144 116 153 184 200 11 25 101 251 144 163 167 157 3 85 345 145 152 155 158 156 124 190 118 142 158 180 181 196 174 196 195 206 191 137 144 146 49 96 190 105 215 139 132 129 219 185 31 319 316 334 203 176 186 179 134 145 176 204 77 19 197 210 164 247 14 288 140 204 209 266 170 214 224 174 204 187 172 185 202 179 123
155 139 154 161 164 168 148 146 189 162 49 170 171 136 148 161 132 160 154 39 17 121 350 88 22 126 144 172 154 161 149 162 181 188 229 186 213 224 278 167 163 147 155 181 182 289 114 97 103 164 203 165 345 37 332 290 338 252 314 229 158 208 90 195 210 187 95 90 63 69 334 270 90 124 313 294 295 256 313 266 242 195 175 167 167 164 173 122
39 89 114 148 175 172 138 160 86 156 205 350 3 54 18 84 121 152 157 275 131 348 95 111 174 131 320 111 152 164 162 172 168 194 181 210 221 203 198 164 141 162 158 67 53 217 87 110 94 44 66 311 304 247 161 180 233 277 246 138 173 199 204 226 290 133 161 124 178 182 239 255 348 102 234 258 272 292 274 245 267 214 174 165 157 173 165 156
99 121 134 176 180 196 160 174 185 197 167 12 93 87 332 140 148 139 206 147 145 161 155 138 58 314 137 146 137 163 176 148 248 222 8 154 191 45 163 151 157 167 167 187 178 182 167 204 120 125 99 90 278 151 167 150 138 232 218 167 265 55 76 111 111 353 183 211 174 180 239 244 196 67 195 182 257 265 259 225 203 235 177 196 183 159 122 167
112 47 61 146 185 204 187 206 196 157 153 145 143 149 148 93 349 309 153 159 276 147 126 177 160 149 113 158 137 140 184 191 138 230 59 184 141 66 334 176 173 179 159 69 67 151 195 155 156 159 157 176 187 199 196 206 211 175 113 108 177 161 134 142 187 170 231 171 168 220 245 242 45 319 204 158 205 265 249 226 187 250 215 191 180 167 172 213
160 137 149 133 177 208 288 63 153 168 162 158 155 188 143 125 90 141 115 82 220 109 352 117 356 79 114 135 137 163 187 358 136 170 167 166 121 345 231 240 196 178 12 130 150 149 171 153 204 191 189 190 195 204 204 92 87 176 204 175 185 196 179 157 61 121 212 172 183 216 226 64 221 216 214 217 189 211 186 183 203 206 231 256 241 181 214 232
50 130 162 151 129 210 192 166 156 161 186 169 173 158 167 161 139 108 268 159 202 182 91 35 171 149 198 160 169 177 187 141 344 135 179 144 330 49 29 161 133 17 106 119 157 105 93 179 208 220 227 224 219 210 149 161 173 197 190 185 174 164 175 179 186 213 129 92 240 239 237 235 216 205 210 210 177 215 229 191 194 209 212 200 189 219 255 258
114 293 0 262 157 178 183 207 189 174 161 184 169 154 163 142 164 159 53 349 97 243 146 18 229 210 166 174 149 151 156 152 107 148 91 35 110 344 87 24 172 336 56 149 197 143 154 207 204 205 231 226 45 143 162 194 207 200 192 169 163 177 162 190 213 217 133 204 230 237 209 222 214 192 211 211 180 191 201 203 196 239 172 183 190 207 232 242
54 58 61 330 129 171 193 95 141 156 163 183 101 177 172 167 176 161 156 142 168 201 242 162 194 191 181 164 158 148 163 146 223 162 175 163 156 142 102 64 267 64 109 124 152 236 143 220 182 178 220 220 117 163 172 187 179 142 186 181 183 166 183 195 212 210 188 217 226 246 178 222 172 187 206 218 210 196 76 27 348 217 225 201 185 217 228 224
169 119 181 15 35 123 131 129 152 152 174 182 172 203 178 182 160 112 141 161 166 194 151 193 177 165 169 175 174 167 187 192 174 167 218 144 146 199 178 180 146 51 79 154 158 266 178 210 129 147 214 226 135 80 67 220 168 189 88 151 174 184 199 205 215 218 214 239 244 241 250 266 211 203 204 193 78 99 329 245 229 231 229 221 206 210 214 224
40 26 2 128 112 126 132 145 160 171 167 186 202 177 160 189 171 157 124 333 200 171 174 176 143 109 128 165 167 193 187 160 164 177 170 160 175 194 161 223 159 151 169 135 152 109 199 205 54 134 203 227 145 157 120 89 65 137 139 173 180 181 200 214 219 217 201 220 233 242 257 258 187 159 228 258 156 171 206 229 230 240 241 232 228 233 231 240
257 156 132 66 91 168 154 148 146 148 201 193 194 173 186 184 127 147 103 264 42 31 164 136 153 124 138 166 194 189 168 155 172 144 162 92 59 91 32 153 162 157 169 181 168 157 180 137 156 170 206 215 41 178 134 120 107 237 213 200 191 196 201 208 216 218 210 213 219 205 232 226 122 168 165 219 239 221 228 227 237 230 216 192 215 233 234 230